Location: Marcé
(47.5801°N, 0.3280°W)
Time: 01:51:35
(UTC+02:00)

RAPIDEYE 2 - Pass Details

Date: 08 July 2022
Orbit: 570 x 584 km, 97.6° (Epoch: 14 August)

Event Time Altitude Azimuth Distance (km) Brightness Sun altitude
Exits shadow 23:17:41 - 185° (S) 2,199 ? -10.4°
Reaches altitude 10° 23:18:31 10° 188° (S) 1,868 ? -10.5°
Maximum altitude 23:22:24 44° 261° (W) 795 ? -10.9°
Drops below altitude 10° 23:26:19 10° 335° (NNW) 1,887 ? -11.3°
Sets 23:28:33 0° 342° (NNW) 2,792 ? -11.5°
